K5BWX-7 Weather Reports


time (UTC)temp
C
wind
direction
speed
KPH
gust
KPH
rain 1hr
cm
rain 24hr
cm
rain mn
cm
humidity
%
barometer
mb
20260510120010 13 360 0.0 0.0 0.00 0.00 0.00 92 1015.2
20260510114546 12 360 0.0 0.0 0.00 0.00 0.00 91 1015.0
20260510113010 11 360 0.0 0.0 0.00 0.00 0.00 91 1014.8
20260510111551 11 360 0.0 0.0 0.00 0.00 0.00 89 1014.6
20260510110021 11 360 0.0 0.0 0.00 0.00 0.00 89 1014.3
20260510104601 11 360 0.0 0.0 0.00 0.00 0.00 89 1014.3
20260510103023 11 360 0.0 0.0 0.00 0.00 0.00 88 1014.1
20260510101558 11 360 0.0 0.0 0.00 0.00 0.00 87 1014.1
20260510100035 12 360 0.0 0.0 0.00 0.00 0.00 87 1013.8
20260510094519 12 360 0.0 0.0 0.00 0.00 0.00 86 1013.6
20260510093052 13 319 0.0 0.0 0.00 0.00 0.00 84 1013.5
20260510091519 14 319 0.0 0.0 0.00 0.00 0.00 82 1013.4
20260510090054 15 279 1.6 8.0 0.00 0.00 0.00 86 1013.5
20260510084537 15 280 4.8 11.3 0.00 0.00 0.00 87 1013.3
20260510083054 14 296 1.6 8.0 0.00 0.00 0.00 91 1013.2
20260510081541 11 285 0.0 6.4 0.00 0.00 0.00 93 1013.0
20260510080006 10 85 0.0 0.0 0.00 0.00 0.00 88 1012.8
20260510074545 10 85 0.0 0.0 0.00 0.00 0.00 86 1012.6
20260510073014 10 85 0.0 0.0 0.00 0.00 0.00 86 1012.5
20260510071551 10 85 0.0 0.0 0.00 0.00 0.00 86 1012.4
20260510070036 10 85 0.0 0.0 0.00 0.00 0.00 85 1012.5
20260510064507 11 85 0.0 0.0 0.00 0.00 0.00 84 1012.5
20260510063040 11 85 0.0 0.0 0.00 0.00 0.00 84 1012.4
20260510061513 11 85 0.0 1.6 0.00 0.00 0.00 85 1012.5
20260510060050 11 112 0.0 3.2 0.00 0.00 0.00 84 1012.5
20260510054525 11 115 0.0 0.0 0.00 0.00 0.00 82 1012.5
20260510053043 12 115 0.0 1.6 0.00 0.00 0.00 83 1012.6
20260510051524 12 86 0.0 3.2 0.00 0.00 0.00 83 1012.5
20260510050107 12 86 1.6 6.4 0.00 0.00 0.00 81 1012.6
20260510044544 12 97 0.0 0.0 0.00 0.00 0.00 79 1012.4
20260510043056 12 97 0.0 1.6 0.00 0.00 0.00 79 1012.4
20260510041534 13 103 1.6 6.4 0.00 0.00 0.00 79 1012.4
20260510040008 13 182 0.0 0.0 0.00 0.00 0.00 76 1012.3
20260510034556 13 182 0.0 0.0 0.00 0.00 0.00 76 1012.3
20260510033015 13 263 0.0 0.0 0.00 0.00 0.00 75 1012.3
20260510031549 14 263 0.0 0.0 0.00 0.00 0.00 75 1012.2
20260510030042 15 263 0.0 0.0 0.00 0.00 0.00 72 1012.1
20260510024509 15 263 0.0 0.0 0.00 0.00 0.00 71 1011.9
20260510023031 15 263 0.0 0.0 0.00 0.00 0.00 70 1011.7
20260510021508 16 263 0.0 0.0 0.00 0.00 0.00 68 1011.4
20260510020051 16 263 0.0 0.0 0.00 0.00 0.00 66 1011.3
20260510014539 17 263 0.0 0.0 0.00 0.00 0.00 65 1011.2
20260510013047 18 263 0.0 0.0 0.00 0.00 0.00 62 1011.0
20260510011531 19 263 0.0 0.0 0.00 0.00 0.00 60 1010.7
20260510010004 20 263 0.0 0.0 0.00 0.00 0.00 58 1010.3
20260510004545 22 242 0.0 0.0 0.00 0.00 0.00 53 1010.3
20260510003007 23 242 0.0 0.0 0.00 0.00 0.00 48 1010.1
20260510001548 25 242 0.0 0.0 0.00 0.00 0.00 46 1010.1
20260510000032 26 242 0.0 6.4 0.00 0.00 0.00 42 1010.1
20260509234507 26 281 0.0 6.4 0.00 0.00 0.00 37 1009.9
20260509233024 26 342 3.2 8.0 0.00 0.00 0.00 36 1009.8
20260509231503 26 98 1.6 8.0 0.00 0.00 0.00 39 1009.8
20260509230041 26 250 0.0 6.4 0.00 0.00 0.00 40 1009.7
20260509224522 25 21 1.6 3.2 0.00 0.00 0.00 38 1009.6
20260509223045 25 299 1.6 9.7 0.00 0.00 0.00 38 1009.6
20260509221522 25 290 4.8 14.5 0.00 0.00 0.00 37 1009.5
20260509220058 26 321 8.0 14.5 0.00 0.00 0.00 38 1009.6
20260509214537 26 345 3.2 11.3 0.00 0.00 0.00 39 1009.4
20260509213055 26 205 6.4 11.3 0.00 0.00 0.00 40 1009.6
20260509211538 26 209 6.4 17.7 0.00 0.00 0.00 39 1009.3
20260509210019 26 63 0.0 9.7 0.00 0.00 0.00 45 1009.4
20260509204557 25 299 4.8 11.3 0.00 0.00 0.00 43 1009.4
20260509203019 25 257 8.0 14.5 0.00 0.00 0.00 42 1009.4
20260509201604 25 102 0.0 11.3 0.00 0.00 0.00 53 1009.5
20260509200043 25 241 6.4 12.9 0.00 0.00 0.00 44 1009.6
20260509194515 23 132 3.2 11.3 0.00 0.00 0.00 51 1009.8
20260509193038 24 113 4.8 9.7 0.00 0.00 0.00 54 1010.0
20260509191510 23 179 4.8 9.7 0.00 0.00 0.00 55 1010.0
20260509190048 23 64 1.6 11.3 0.00 0.00 0.00 58 1010.1
20260509184539 22 169 3.2 9.7 0.00 0.00 0.00 59 1010.2
20260509183048 22 121 1.6 8.0 0.00 0.00 0.00 59 1010.1
20260509181530 22 153 6.4 9.7 0.00 0.00 0.00 61 1010.0
20260509180006 22 105 1.6 9.7 0.00 0.00 0.00 61 1009.9
20260509174546 22 146 3.2 8.0 0.00 0.00 0.00 61 1009.8
20260509173109 22 101 4.8 9.7 0.00 0.00 0.00 61 1009.8
20260509173002 22 103 1.6 9.7 0.00 0.00 0.00 61 1009.8
20260509171545 22 326 6.4 14.5 0.00 0.00 0.00 61 1009.8
20260509170020 22 160 8.0 14.5 0.00 0.00 0.00 59 1010.1
20260509164553 22 5 4.8 11.3 0.00 0.00 0.00 60 1010.2
20260509163015 21 318 4.8 12.9 0.00 0.00 0.00 63 1010.3
20260509161554 21 292 6.4 12.9 0.00 0.00 0.00 63 1010.4
20260509160036 21 205 1.6 14.5 0.00 0.00 0.00 65 1010.4
20260509154511 20 304 3.2 16.1 0.00 0.00 0.00 67 1010.3
20260509153039 20 262 6.4 12.9 0.00 0.00 0.00 69 1010.3
20260509151514 20 286 6.4 12.9 0.00 0.00 0.00 70 1010.1
20260509150104 19 302 6.4 19.3 0.00 0.00 0.00 71 1010.0
20260509144551 19 316 6.4 17.7 0.00 0.00 0.00 72 1009.9
20260509143051 18 308 8.0 16.1 0.00 0.00 0.00 73 1009.8
20260509141536 18 291 9.7 19.3 0.00 0.00 0.00 74 1009.8
20260509140007 18 271 12.9 20.9 0.00 0.00 0.00 75 1009.7
20260509134548 18 209 8.0 17.7 0.00 0.00 0.00 76 1009.7
20260509133006 17 239 9.7 17.7 0.00 0.00 0.00 78 1009.8
20260509131545 17 271 6.4 17.7 0.00 0.00 0.00 79 1009.7
20260509130022 16 276 6.4 14.5 0.00 0.00 0.00 81 1009.7
20260509124612 16 250 3.2 14.5 0.00 0.00 0.00 83 1009.7
20260509123014 15 226 3.2 16.1 0.00 0.00 0.00 85 1009.7
20260509121553 14 263 4.8 16.1 0.00 0.00 0.00 87 1009.9